[[{"header":{"parameterUnit":"m.s-1","parameterCategory":1,"la1":30.2991,"la2":30.254,"lo1":-89.0895,"lo2":-89.0444,"dy":0.0017,"dx":0.0017,"nx":28,"ny":28,"refTime":"2025-12-23T03:00:00:Z","depth":0,"parameterNumber":2,"parameterNumberName":"U-component_of_WINDS"},"data":[0,0,0,0,0,0,0,0,0,0,0,0,0,0,0,0,0,0,0,0,0,0,0,0,0,0,0,0,0,0,0,0,0,0,0,0,0,0,0,0,0,0,0,0,0,0,0,0,0,0,0,0,0,0,0,0,0,0,-1.8247,-1.8247,0,-1.8246,-1.8246,-1.8246,-1.8181,-1.818,-1.8178,-1.8176,-1.8174,-1.8176,-1.8177,0,0,0,0,0,0,0,0,0,0,0,0,0,-1.8195,-1.8196,-1.8247,-1.8247,-1.8247,-1.8246,-1.8246,-1.8246,-1.8182,-1.818,-1.8178,-1.8176,-1.8174,-1.8175,-1.8177,0,0,0,0,0,0,0,0,0,0,0,0,0,-1.8208,-1.8197,-1.8247,-1.8215,-1.8212,-1.8246,-1.8246,-1.8246,-1.8182,-1.818,-1.8177,-1.8175,-1.8173,-1.8175,-1.8177,-1.8241,0,0,-1.8184,-1.8185,0,0,0,0,0,0,0,0,-1.8207,-1.821,-1.822,-1.8217,-1.8214,-1.8211,-1.8226,-1.8244,-1.8183,-1.8193,-1.8176,-1.8173,-1.8188,-1.8189,-1.8194,-1.8241,-1.8241,-1.8184,-1.8186,-1.8187,-1.8187,0,0,0,0,0,0,0,-1.8207,-1.821,-1.8246,-1.822,-1.8217,-1.8201,-1.82,-1.8229,-1.8205,-1.8192,-1.8188,-1.8188,-1.8186,-1.8192,-1.8194,-1.8241,-1.8184,-1.8186,-1.8188,-1.8189,-1.8341,-1.8343,0,0,0,0,0,0,-1.821,-1.8209,-1.8246,-1.8246,-1.8205,-1.8204,-1.8203,-1.8215,-1.8204,-1.82,-1.8191,-1.8185,-1.819,-1.8191,-1.8194,-1.8268,-1.8187,-1.8189,-1.819,-1.8338,-1.8342,-1.8344,0,0,0,0,0,0,-1.8209,-1.8214,-1.8247,-1.8227,-1.823,-1.8207,-1.8221,-1.8216,-1.8222,-1.8203,-1.8198,-1.8201,-1.8188,-1.819,-1.823,-1.8267,-1.819,-1.8192,-1.8335,-1.8339,-1.8343,-1.8417,0,0,0,0,0,0,-1.8208,-1.8214,-1.8238,-1.8228,-1.8231,-1.8283,-1.8223,-1.8218,-1.8226,-1.8219,-1.8212,-1.8208,-1.8186,-1.8227,-1.8232,-1.8268,-1.8194,-1.8332,-1.8337,-1.8342,-1.8411,-1.8423,-1.8433,0,0,0,0,0,-1.8206,-1.8258,-1.8239,-1.8244,-1.826,-1.8285,-1.8287,-1.8261,-1.8229,-1.8253,-1.8241,-1.8208,-1.8262,-1.8232,-1.8237,-1.8274,-1.8329,-1.8335,-1.8341,-1.8406,-1.842,-1.8433,0,0,0,0,0,0,-1.8272,-1.8256,-1.8235,-1.8285,-1.8287,-1.8275,-1.8303,-1.8277,-1.8288,-1.8281,-1.8248,-1.8247,-1.8292,-1.8287,-1.8253,-1.8336,-1.829,-1.8297,-1.8337,-1.8351,-1.8362,-1.8361,-1.8195,0,0,0,0,0,-1.8293,-1.8315,-1.83,-1.8346,-1.8348,-1.8326,-1.8336,-1.8316,-1.8316,-1.8317,-1.8308,-1.8309,-1.8327,-1.8339,-1.8354,-1.841,-1.8408,-1.8439,-1.845,-1.8459,-1.8466,-1.8496,-1.8509,-1.8364,-1.8364,-1.8364,0,0,-1.8335,-1.8329,-1.8345,-1.8359,-1.8358,-1.8381,-1.8327,-1.8354,-1.8371,-1.8321,-1.8357,-1.8352,-1.8351,-1.84,-1.8421,-1.8397,-1.8505,-1.8467,-1.8474,-1.8476,-1.8503,-1.8517,-1.8529,-1.8369,-1.8368,-1.8367,0,0,-1.8424,-1.8422,-1.846,-1.8461,-1.8461,-1.8446,-1.8456,-1.8448,-1.8442,-1.8479,-1.8442,-1.8462,-1.8492,-1.8494,-1.8499,-1.8591,-1.8561,-1.8597,-1.8654,-1.8684,-1.8695,-1.8705,-1.8738,-1.875,-1.8604,-1.8604,-1.8604,0,-1.8477,-1.8511,-1.8483,-1.8513,-1.852,-1.8477,-1.8516,-1.8518,-1.8522,-1.8529,-1.8502,-1.854,-1.8537,-1.8586,-1.8609,-1.8614,-1.8624,-1.8597,-1.8696,-1.8706,-1.8714,-1.8745,-1.8758,-1.8608,-1.8608,-1.8607,-1.8607,0,-1.8576,-1.86,-1.8631,-1.8637,-1.8648,-1.8682,-1.866,-1.8675,-1.8654,-1.8643,-1.8681,-1.8676,-1.869,-1.87,-1.868,-1.8747,-1.8732,-1.8702,-1.8654,-1.8733,-1.8761,-1.8773,-1.8614,-1.8613,-1.8611,-1.861,0,0,-1.8704,-1.8696,-1.8708,-1.8711,-1.8709,-1.8727,-1.876,-1.8773,-1.8787,-1.8792,-1.8818,-1.8846,-1.8818,-1.8824,-1.8804,-1.8831,-1.8904,-1.8797,-1.8796,-1.8817,-1.8977,-1.9,-1.9014,-1.8885,-1.8887,-1.8889,-1.8977,0,-1.879,-1.8845,-1.8822,-1.888,-1.8902,-1.8862,-1.8891,-1.8893,-1.8884,-1.8901,-1.8891,-1.8911,-1.8873,-1.8876,-1.8901,-1.889,-1.8936,-1.8884,-1.8909,-1.8911,-1.891,-1.9029,-1.9052,-1.9135,-1.8988,-1.899,-1.8991,0,-1.8897,-1.8908,-1.8968,-1.8963,-1.8971,-1.8997,-1.9009,-1.9026,-1.9028,-1.9019,-1.9027,-1.9002,-1.9034,-1.8988,-1.9032,-1.8997,-1.9006,-1.9003,-1.9006,-1.9006,-1.8955,-1.9032,-1.9161,-1.9174,-1.9009,-1.9007,-1.9006,0,-1.8984,-1.9014,-1.9054,-1.9057,-1.9053,-1.9072,-1.9071,-1.907,-1.908,-1.9091,-1.9097,-1.9111,-1.9118,-1.913,-1.9109,-1.9078,-1.9156,-1.9108,-1.9149,-1.915,-1.9166,-1.9165,-1.9299,-1.9174,-1.9174,-1.9174,-1.9174,0,-1.9082,-1.912,-1.9093,-1.9117,-1.9159,-1.9133,-1.9175,-1.917,-1.917,-1.9193,-1.916,-1.9182,-1.9154,-1.9173,-1.9157,-1.9196,-1.92,-1.9194,-1.9189,-1.9196,-1.9197,-1.9201,-1.9194,-1.9177,-1.9176,-1.9176,-1.9175,0,-1.9186,-1.9169,-1.921,-1.9203,-1.9202,-1.9234,-1.9227,-1.925,-1.9239,-1.9268,-1.9274,-1.9257,-1.9278,-1.9259,-1.9279,-1.9269,-1.932,-1.9308,-1.932,-1.9316,-1.9358,-1.9354,-1.9498,-1.9515,-1.938,-1.9382,-1.9383,0,-1.9249,-1.9277,-1.9274,-1.9287,-1.9288,-1.931,-1.9321,-1.9297,-1.9309,-1.9314,-1.9336,-1.9355,-1.9369,-1.9405,-1.9394,-1.941,-1.9397,-1.9446,-1.9399,-1.9406,-1.9397,-1.9395,-1.9398,-1.9456,-1.9457,-1.9458,-1.946,0,-1.9362,-1.9353,-1.937,-1.9385,-1.9399,-1.9409,-1.9416,-1.9429,-1.9404,-1.942,-1.9442,-1.9453,-1.9475,-1.9494,-1.9506,-1.9505,-1.9479,-1.9475,-1.9485,-1.9492,-1.9498,-1.9495,-1.9345,-1.9471,-1.947,-1.9469,-1.9469,-1.9468,-1.9447,-1.9471,-1.9473,-1.9493,-1.9496,-1.9505,-1.9526,-1.9518,-1.9536,-1.9552,-1.9537,-1.9564,-1.9566,-1.958,-1.9583,-1.9603,-1.9583,-1.9597,-1.9601,-1.9605,-1.9611,-1.9496,-1.9606,-1.9605,-1.9605,-1.9605,-1.9604,0,-1.9558,-1.9558,-1.9577,-1.9589,-1.9605,-1.958,-1.9588,-1.9603,-1.9627,-1.9632,-1.9646,-1.9672,-1.9691,-1.9683,-1.9699,-1.9717,-1.9706,-1.9722,-1.972,-1.9721,-1.9629,-1.9618,-1.9732,-1.9732,-1.9732,-1.9732,-1.9732,-1.9732,-1.9618,-1.9657,-1.9649,-1.969,-1.9689,-1.9715,-1.9722,-1.973,-1.9733,-1.9764,-1.978,-1.9774,-1.9774,-1.9791,-1.9807,-1.9804,-1.9812,-1.9833,-1.9826,-1.974,-1.9727,-1.9715,-1.9705,-1.9835,-1.9835,-1.9916,-1.9916,-1.9917]},{"header":{"parameterUnit":"m.s-1","parameterCategory":1,"la1":30.2991,"la2":30.254,"lo1":-89.0895,"lo2":-89.0444,"dy":0.0017,"dx":0.0017,"nx":28,"ny":28,"refTime":"2025-12-23T03:00:00:Z","depth":0,"parameterNumber":3,"parameterNumberName":"V-component_of_WINDS"},"data":[0,0,0,0,0,0,0,0,0,0,0,0,0,0,0,0,0,0,0,0,0,0,0,0,0,0,0,0,0,0,0,0,0,0,0,0,0,0,0,0,0,0,0,0,0,0,0,0,0,0,0,0,0,0,0,0,0,0,0.0764,0.0764,0,0.0794,0.0795,0.0795,0.0846,0.0847,0.0848,0.0849,0.0878,0.0877,0.0877,0,0,0,0,0,0,0,0,0,0,0,0,0,0.075,0.075,0.0764,0.0764,0.0765,0.0794,0.0795,0.0795,0.0846,0.0847,0.0849,0.085,0.0878,0.0877,0.0877,0,0,0,0,0,0,0,0,0,0,0,0,0,0.0766,0.075,0.0764,0.0794,0.0797,0.0794,0.0795,0.0795,0.0846,0.0847,0.0849,0.085,0.0878,0.0877,0.0877,0.0847,0,0,0.0877,0.0876,0,0,0,0,0,0,0,0,0.0765,0.0766,0.0789,0.0792,0.0795,0.0818,0.08,0.0812,0.0846,0.0827,0.0849,0.0851,0.0856,0.0858,0.086,0.0848,0.0849,0.0877,0.0876,0.0876,0.0876,0,0,0,0,0,0,0,0.0763,0.0765,0.0776,0.0789,0.0793,0.0806,0.0809,0.0803,0.0833,0.0829,0.0833,0.0836,0.0858,0.0861,0.0861,0.085,0.0877,0.0876,0.0876,0.0876,0.0816,0.0814,0,0,0,0,0,0,0.0758,0.0764,0.0775,0.0777,0.0783,0.0805,0.0809,0.0809,0.0833,0.0839,0.0835,0.0838,0.086,0.0862,0.0863,0.083,0.0876,0.0876,0.0876,0.0817,0.0815,0.0814,0,0,0,0,0,0,0.0758,0.0759,0.0774,0.0771,0.0774,0.0803,0.0803,0.0809,0.0811,0.0838,0.0843,0.0831,0.0861,0.0863,0.0851,0.0831,0.0876,0.0876,0.0819,0.0817,0.0815,0.0763,0,0,0,0,0,0,0.0757,0.0758,0.0747,0.0771,0.0774,0.0762,0.0802,0.0809,0.0811,0.0816,0.0836,0.0841,0.0863,0.0851,0.0851,0.0832,0.0876,0.0821,0.0818,0.0815,0.0766,0.0759,0.0753,0,0,0,0,0,0.0756,0.073,0.0746,0.0747,0.0761,0.076,0.0762,0.0789,0.0809,0.0798,0.0816,0.084,0.0834,0.0849,0.0849,0.083,0.0822,0.0819,0.0815,0.0769,0.076,0.0753,0,0,0,0,0,0,0.0702,0.0734,0.0752,0.0733,0.0744,0.0769,0.0756,0.0778,0.0783,0.0787,0.0819,0.0823,0.0807,0.0818,0.0834,0.0803,0.0832,0.0828,0.0797,0.0788,0.0782,0.078,0.0875,0,0,0,0,0,0.0688,0.0686,0.0713,0.0694,0.0699,0.0726,0.0727,0.0747,0.0759,0.0763,0.078,0.079,0.0791,0.079,0.0792,0.0768,0.0774,0.0755,0.0748,0.0743,0.0739,0.0729,0.0721,0.0803,0.0803,0.0803,0,0,0.0659,0.0676,0.0672,0.0683,0.0694,0.0691,0.073,0.0724,0.0722,0.0762,0.0752,0.0765,0.0778,0.0761,0.0754,0.0769,0.0718,0.0739,0.0734,0.0734,0.0725,0.0717,0.071,0.0801,0.0801,0.0801,0,0,0.0604,0.0616,0.0602,0.0613,0.0629,0.0648,0.0645,0.0667,0.0677,0.0668,0.0699,0.0697,0.0696,0.0705,0.071,0.066,0.0683,0.066,0.0624,0.0614,0.0608,0.0602,0.0585,0.0578,0.0656,0.0656,0.0656,0,0.0565,0.0562,0.0592,0.0585,0.0589,0.0627,0.0614,0.0622,0.0637,0.0639,0.0656,0.0658,0.067,0.0656,0.0644,0.0646,0.0643,0.0658,0.0606,0.0601,0.0596,0.058,0.0574,0.0653,0.0654,0.0654,0.0654,0,0.0514,0.0511,0.0498,0.0513,0.0516,0.0506,0.0534,0.0533,0.0553,0.057,0.0561,0.0577,0.0583,0.0581,0.06,0.057,0.0579,0.06,0.063,0.0585,0.0571,0.0565,0.0649,0.065,0.0651,0.0652,0,0,0.0424,0.0458,0.0453,0.0461,0.0483,0.0481,0.0473,0.048,0.0479,0.0489,0.0483,0.0483,0.0504,0.0509,0.0529,0.0519,0.048,0.0543,0.0543,0.0531,0.0449,0.0433,0.0426,0.0496,0.0495,0.0494,0.0449,0,0.0374,0.0362,0.039,0.0371,0.037,0.0407,0.0399,0.0412,0.0428,0.0429,0.0446,0.0446,0.0473,0.0476,0.0469,0.0487,0.0465,0.049,0.0491,0.049,0.0486,0.0418,0.0401,0.0357,0.0443,0.0442,0.0442,0,0.0314,0.0322,0.0304,0.0328,0.0329,0.0321,0.0331,0.0332,0.0347,0.0359,0.0366,0.039,0.0384,0.0412,0.0404,0.0421,0.0423,0.0432,0.0431,0.0432,0.0463,0.0418,0.0344,0.0337,0.0433,0.0434,0.0434,0,0.0251,0.0258,0.0248,0.0254,0.0282,0.0277,0.0288,0.0305,0.0308,0.0316,0.0319,0.0326,0.0329,0.0334,0.036,0.0378,0.0349,0.0379,0.0359,0.0358,0.0351,0.0351,0.0276,0.0351,0.0351,0.0352,0.0352,0,0.0193,0.018,0.0221,0.0215,0.0202,0.0234,0.022,0.0235,0.025,0.0248,0.028,0.0276,0.031,0.0311,0.0331,0.0321,0.0323,0.0333,0.0338,0.033,0.0329,0.0332,0.0335,0.035,0.035,0.0351,0.0351,0,0.012,0.0147,0.0139,0.0167,0.0174,0.0163,0.0187,0.0183,0.0202,0.0198,0.0199,0.0228,0.0231,0.0257,0.0264,0.0278,0.0261,0.0272,0.0256,0.026,0.0238,0.024,0.0163,0.0155,0.0234,0.0234,0.0233,0,0.0081,0.0073,0.01,0.0102,0.0112,0.0113,0.0117,0.0149,0.0151,0.0169,0.0162,0.0168,0.0174,0.0176,0.0198,0.0204,0.0216,0.0189,0.0217,0.021,0.0216,0.0217,0.0216,0.0182,0.0181,0.018,0.018,0,0.0009,0.0023,0.0028,0.0038,0.0043,0.0052,0.0063,0.0062,0.0097,0.0098,0.0102,0.0107,0.0116,0.0121,0.0132,0.0143,0.0167,0.0171,0.0167,0.0158,0.015,0.0155,0.024,0.0172,0.0173,0.0174,0.0174,0.0174,-0.0047,-0.0052,-0.0033,-0.0028,-0.0016,-0.0006,-0.0009,0.0011,0.0015,0.0025,0.0044,0.0045,0.0061,0.0079,0.0088,0.0089,0.0103,0.0097,0.0095,0.0093,0.0089,0.0149,0.0091,0.0091,0.0092,0.0092,0.0092,0,-0.0117,-0.0102,-0.0098,-0.0083,-0.0079,-0.0055,-0.0041,-0.0039,-0.0038,-0.0024,-0.0018,-0.0014,-0.0008,0.0015,0.0023,0.0019,0.0031,0.002,0.0021,0.0023,0.0076,0.0079,0.0011,0.0011,0.0011,0.0011,0.0011,0.0011,-0.0153,-0.016,-0.0143,-0.0144,-0.0129,-0.0127,-0.0121,-0.0111,-0.01,-0.0095,-0.009,-0.0075,-0.0057,-0.0047,-0.0041,-0.0035,-0.0033,-0.0047,-0.0037,0.0012,0.0019,0.0027,0.003,-0.0047,-0.0047,-0.0089,-0.009,-0.009]}]]